Left ArrowRight Arrow

Hourly Observations for June 16, 2024

Temp ( °F °C ) Dew Point ( °F °C ) Humidity (%) Winds ( mph kmh ) Pressure ( in mb ) Visibility ( mi km ) Precip ( " mm )
12:53 am 00:53 Mostly Cloudy 76 24.4 70 21.1 82 82 S 3 6 30.03 1017 10 16 0.00 0.00
1:53 am 01:53 Mostly Clear 76 24.4 70 21.1 82 82 Calm 30.03 1017 10 16 0.00 0.00
2:53 am 02:53 Clear 74 23.3 70 21.1 87 87 Calm 30.04 1017 10 16 0.00 0.00
3:53 am 03:53 Clear 73 22.8 69 20.6 87 87 Calm 30.04 1017 10 16 0.00 0.00
4:53 am 04:53 Clear 73 22.8 69 20.6 87 87 Calm 30.05 1018 10 16 0.00 0.00
5:53 am 05:53 Clear 72 22.2 69 20.6 91 91 Calm 30.06 1018 9 14 0.00 0.00
6:53 am 06:53 Sunny 73 22.8 70 21.1 90 90 Calm 30.08 1019 7 11 0.00 0.00
7:53 am 07:53 Mostly Cloudy 75 23.9 70 21.1 84 84 Calm 30.10 1019 8 13 0.00 0.00
8:53 am 08:53 Cloudy 79 26.1 70 21.1 74 74 Calm 30.12 1020 10 16 0.00 0.00
9:53 am 09:53 Mostly Cloudy 83 28.3 70 21.1 65 65 SE 5 7 30.14 1021 10 16 0.00 0.00
10:53 am 10:53 Sunny 86 30 67 19.4 53 53 VRB 3 6 30.14 1021 10 16 0.00 0.00
11:53 am 11:53 Mostly Sunny 87 30.6 66 18.9 50 50 S 5 7 30.14 1021 10 16 0.00 0.00
12:53 pm 12:53 Partly Cloudy 90 32.2 69 20.6 50 50 VRB 6 9 30.13 1020 10 16 0.00 0.00
1:53 pm 13:53 Mostly Sunny 92 33.3 67 19.4 44 44 S 10 17 30.11 1020 10 16 0.00 0.00
2:53 pm 14:53 Sunny 92 33.3 67 19.4 44 44 VRB 7 11 30.08 1019 10 16 0.00 0.00
3:53 pm 15:53 Mostly Sunny 93 33.9 68 20 44 44 VRB 3 6 30.07 1018 10 16 0.00 0.00
4:53 pm 16:53 Sunny 93 33.9 67 19.4 43 43 ESE 3 6 30.06 1018 10 16 0.00 0.00
5:53 pm 17:53 Mostly Sunny 90 32.2 68 20 49 49 VRB 3 6 30.06 1018 10 16 0.00 0.00
6:53 pm 18:53 Sunny 88 31.1 71 21.7 57 57 SSE 9 15 30.07 1018 10 16 0.00 0.00
7:53 pm 19:53 Sunny 86 30 69 20.6 57 57 SSE 10 17 30.09 1019 10 16 0.00 0.00
8:53 pm 20:53 Partly Cloudy 83 28.3 69 20.6 63 63 VRB 5 7 30.11 1020 10 16 0.00 0.00
9:53 pm 21:53 Clear 82 27.8 69 20.6 65 65 VRB 5 7 30.12 1020 10 16 0.00 0.00
10:53 pm 22:53 Mostly Cloudy 81 27.2 73 22.8 77 77 VRB 3 6 30.14 1021 10 16 0.00 0.00
11:53 pm 23:53 Mostly Clear 79 26.1 73 22.8 82 82 VRB 3 6 30.15 1021 10 16 0.00 0.00

Powered by Vaisala Xweather